Location: Barruelo
(41.2448°N, 3.8231°W)
Time: 23:54:37
(UTC+00:00)

UNK - Pass Details

Date: 11 December 2025
Orbit: 654 x 673 km, 98.4° (Epoch: 14 January)

Event Time Altitude Azimuth Distance (km) Brightness Sun altitude
Rises 17:30:45 0° 13° (NNE) 3,018 6.7 -8.3°
Reaches altitude 10° 17:33:00 10° 13° (NNE) 2,098 5.9 -8.7°
Maximum altitude 17:37:35 90° 334° (NNW) 669 3.7 -9.5°
Drops below altitude 10° 17:42:07 10° 195° (SSW) 2,069 6.8 -10.2°
Sets 17:44:18 0° 195° (SSW) 2,974 7.6 -10.6°
